sat.trackr.live / text

‹ back to catalog

STARLINK-30861

NORAD 58230 · 2023-171A

PAYLOAD ACTIVE UNKNOWN

§ Identity

Operator
Country
US
Launch date
2023-11-08
Launch site
AFETR
Launch vehicle
Mass (kg)
RCS (m²)

Purposes: comms

External: N2YO · Heavens-Above · Gunter

§ Orbital elements

Epoch: 2026-05-25T04:50:17.198880Z

Period
94.22 min
Inclination
42.9915°
Eccentricity
0.0005544
Mean motion
15.28276685 rev/d
Perigee alt
477.2 km
Apogee alt
484.8 km
Semi-major
6,859.1 km
B*
1.6160e-3
RAAN
214.1717°
Arg perigee
3.6545°
Mean anomaly
356.4347°
Rev number
14,142

§ Raw data

STARLINK-308611 58230U 23171A   26145.20158795  .00045457  00000+0  16160-2 0  99972 58230  42.9915 214.1717 0005544   3.6545 356.4347 15.28276685141428

JSON: /api/v1/satellites/58230 · /tle

For live sub-satellite position, see the globe view (requires WebGL).

§ Visibility from observer

Set your observer location to see the next 7 days of passes ≥ 10°. The values pass through the URL so the page stays shareable.

No JS? Fill the form by hand. The geolocation button needs JavaScript.